Meridian, MS

12:50 AM CST on December 06, 2019 (GMT -0600)
Key

Weather History for KMEI - October, 2019

Change the Weather History Date:

Sunday, October 13, 2019

  Actual Average Record
Temperature  
Mean Temperature 62 °F 65 °F  
Max Temperature 69 °F 78 °F 93 °F (1963)
Min Temperature 55 °F 52 °F 33 °F (1917)
Degree Days  
Heating Degree Days 3 3  
Month to date heating degree days 7 25  
Since 1 July heating degree days 7 32  
Cooling Degree Days 0 3  
Month to date cooling degree days 180 55  
Year to date cooling degree days 2812 1978  
Growing Degree Days 12 (Base 50)    
Moisture  
Dew Point 50 °F    
Average Humidity 70    
Maximum Humidity 87    
Minimum Humidity 45    
Precipitation  
Precipitation 0.01 in 0.12 in 2.75 in (2001)
Month to date precipitation 1.42 1.50  
Year to date precipitation 44.60 43.89  
Sea Level Pressure  
Sea Level Pressure 30.07 in    
Wind  
Wind Speed 3 mph ()    
Max Wind Speed 12 mph    
Max Gust Speed 14 mph    
Visibility 10.0 miles    
Events Rain    
T = Trace of Precipitation, MM = Missing Value Source: Averaged Metar Reports

Daily Weather History Graph

Daily Weather History Graph

Search for Another Location

Airport or City:

Astronomy

Oct. 13, 2019 Rise Set
Actual Time 6:57 AM CDT 6:24 PM CDT
Civil Twilight 6:32 AM CDT 6:49 PM CDT
Nautical Twilight 6:03 AM CDT 7:17 PM CDT
Astronomical Twilight 5:35 AM CDT 7:46 PM CDT
Moon 6:44 PM CDT (10/13) 6:36 AM CDT (10/13)
Length of Visible Light 12h 17m
Length of Day
11h 27m
Full, 100% of the Moon is Illuminated
Oct 13
Full
Oct 13
Full
Oct 21
Last Quarter
Oct 27
New
Nov 4
First Quarter

Hourly Weather History & Observations

Time (CDT) Temp. Dew Point Humidity Pressure Visibility Wind Dir Wind Speed Gust Speed Precip Events Conditions
12:58 AM 55.9 °F 52.0 °F 87% 30.03 in 10.0 mi North 4.6 mph - N/A   Overcast
1:58 AM 57.0 °F 51.1 °F 81% 30.03 in 10.0 mi Calm Calm - N/A   Overcast
2:58 AM 55.9 °F 51.1 °F 84% 30.02 in 10.0 mi NNW 4.6 mph - N/A   Scattered Clouds
3:39 AM 57.0 °F 51.1 °F 81% 30.03 in 10.0 mi Calm Calm - N/A   Mostly Cloudy
3:58 AM 57.0 °F 51.1 °F 81% 30.04 in 10.0 mi NNW 4.6 mph - N/A   Overcast
4:58 AM 57.9 °F 48.0 °F 70% 30.05 in 10.0 mi North 4.6 mph - N/A   Overcast
5:58 AM 57.9 °F 46.9 °F 67% 30.06 in 10.0 mi NNW 3.5 mph - N/A   Overcast
6:58 AM 57.9 °F 48.0 °F 70% 30.07 in 10.0 mi NW 4.6 mph - N/A   Overcast
7:58 AM 59.0 °F 46.9 °F 64% 30.08 in 10.0 mi NNW 4.6 mph - N/A   Overcast
8:58 AM 62.1 °F 46.0 °F 56% 30.09 in 10.0 mi Calm Calm - N/A   Overcast
9:18 AM 63.0 °F 46.9 °F 56% 30.09 in 10.0 mi Calm Calm - N/A   Scattered Clouds
9:58 AM 63.0 °F 48.0 °F 58% 30.10 in 10.0 mi NNW 3.5 mph - N/A   Mostly Cloudy
10:58 AM 64.0 °F 48.0 °F 56% 30.10 in 10.0 mi North 3.5 mph - 0.00 in Rain Light Rain
11:58 AM 66.9 °F 50.0 °F 54% 30.08 in 10.0 mi North 4.6 mph - 0.00 in   Mostly Cloudy
12:58 PM 66.9 °F 46.9 °F 49% 30.08 in 10.0 mi Calm Calm - N/A   Scattered Clouds
1:58 PM 68.0 °F 48.0 °F 49% 30.07 in 10.0 mi Calm Calm - N/A   Mostly Cloudy
2:58 PM 68.0 °F 46.0 °F 45% 30.05 in 10.0 mi NNE 3.5 mph - 0.00 in   Mostly Cloudy
3:58 PM 63.0 °F 51.1 °F 65% 30.08 in 10.0 mi North 6.9 mph - 0.00 in Rain Light Rain
4:58 PM 62.1 °F 52.0 °F 70% 30.07 in 10.0 mi NNE 6.9 mph - 0.00 in Rain Light Rain
5:58 PM 61.0 °F 52.0 °F 72% 30.07 in 10.0 mi East 4.6 mph - 0.01 in   Overcast
6:58 PM 59.0 °F 54.0 °F 83% 30.06 in 10.0 mi ESE 3.5 mph - 0.00 in   Overcast
7:58 PM 59.0 °F 54.0 °F 83% 30.08 in 10.0 mi NE 4.6 mph - N/A   Overcast
8:58 PM 57.9 °F 53.1 °F 84% 30.08 in 10.0 mi NE 3.5 mph - N/A   Mostly Cloudy
9:58 PM 59.0 °F 53.1 °F 81% 30.08 in 10.0 mi Calm Calm - N/A   Overcast
10:58 PM 57.9 °F 54.0 °F 87% 30.07 in 10.0 mi SSW 3.5 mph - N/A   Mostly Cloudy
11:58 PM 57.9 °F 54.0 °F 87% 30.07 in 10.0 mi NNW 4.6 mph - N/A   Overcast